Location: Hylvaty SDH
(49.9612°N, 16.4057°E)
Time: 12:43:40
(UTC+01:00)

A-11 Canister half - Pass Details

Date: 06 October 2020
Orbit: 1526 x 1683 km, 47.3° (Epoch: 28 October)

Event Time Altitude Azimuth Distance (km) Brightness Sun altitude
Rises 20:05:16 0° 202° (SSW) 4,678 11.7 -17.5°
Reaches altitude 10° 20:08:49 10° 192° (SSW) 3,689 11.0 -18.0°
Maximum altitude 20:16:22 29° 137° (SE) 2,506 9.6 -19.2°
Enters shadow 20:18:16 27° 117° (ESE) 2,601 9.6 -19.5°
Drops below altitude 10° 20:23:56 10° 82° (E) 3,712 - -20.4°
Sets 20:27:29 0° 72° (ENE) 4,712 - -20.9°
